Waarnemingen

Advertentie
Mijn weer
Huesca, Spanje (8094): temperatuur & dauwpunt: 14.10.2018 21:00:00 - 20.10.2018 21:00:00 (CEST)Huesca, Spanje (8094): windsnelheid: 14.10.2018 21:00:00 - 20.10.2018 21:00:00 (CEST)Huesca, Spanje (8094): windrichting: 14.10.2018 21:00:00 - 20.10.2018 21:00:00 (CEST)Huesca, Spanje (8094): luchtdruk: 14.10.2018 21:00:00 - 20.10.2018 21:00:00 (CEST)Huesca, Spanje (8094): zicht: 14.10.2018 21:00:00 - 20.10.2018 21:00:00 (CEST)Huesca, Spanje (8094): neerslag: 14.10.2018 21:00:00 - 20.10.2018 21:00:00 (CEST)
Datum & Tijd tt [°C] td [°C] ff [km/u] ff [kn] dd ppp [hPa] vv [km] rr [mm]
20.10.2018 21:00:00 16,0 13,3 2 1 ZZW 1023,2 - 0,0
20.10.2018 20:00:00 16,8 13,3 2 1 Z 1022,9 - -
20.10.2018 19:00:00 18,6 13,9 4 2 Z 1021,9 - 0,0
20.10.2018 18:00:00 20,1 13,8 5 3 Z 1021,2 - 0,0
20.10.2018 17:00:00 21,0 13,9 9 5 Z 1020,9 30 -
20.10.2018 16:00:00 21,1 13,3 9 5 ZO 1020,9 - 0,0
20.10.2018 15:00:00 20,2 13,4 8 4 O 1021,3 - 0,0
20.10.2018 14:00:00 19,8 13,5 11 6 OZO 1022,0 30 -
20.10.2018 13:00:00 18,9 14,4 5 3 NO 1022,6 - 0,0
20.10.2018 12:00:00 17,7 15,9 2 1 WNW 1022,9 - 0,0
20.10.2018 11:00:00 16,8 14,8 2 1 N 1022,8 45 -
20.10.2018 10:00:00 15,9 14,4 2 1 NNO 1022,5 - 0,0
20.10.2018 09:00:00 13,9 12,9 4 2 NNW 1022,3 - 0,0
20.10.2018 08:00:00 13,7 12,8 4 2 NNW 1021,5 - -
20.10.2018 07:00:00 13,6 13,1 4 2 W 1021,2 - 0,0
20.10.2018 06:00:00 13,6 13,3 5 3 NW 1020,5 - 0,0
20.10.2018 05:00:00 13,2 12,4 5 3 NW 1020,6 - -
20.10.2018 04:00:00 14,2 12,9 4 2 ZW 1020,4 - 0,0
20.10.2018 03:00:00 14,4 13,8 5 3 NNO 1020,2 - 0,2
20.10.2018 02:00:00 14,3 13,3 9 5 OZO 1020,4 - -
20.10.2018 01:00:00 15,1 14,1 11 6 ZO 1020,3 - 0,6
20.10.2018 00:00:00 15,5 14,2 11 6 OZO 1019,7 - 0,4
19.10.2018 23:00:00 16,1 14,1 11 6 OZO 1018,9 - -
19.10.2018 22:00:00 16,7 13,6 11 6 OZO 1018,0 - 0,0
19.10.2018 21:00:00 16,7 13,8 5 3 O 1017,3 - 0,0
19.10.2018 20:00:00 16,5 13,6 8 4 ONO 1017,0 - -
19.10.2018 19:00:00 16,0 13,7 9 5 NO 1016,0 - 1,0
19.10.2018 18:00:00 18,3 14,8 13 7 NO 1015,3 - 0,0
19.10.2018 17:00:00 17,7 15,1 4 2 ONO 1015,2 35 -
19.10.2018 16:00:00 20,2 13,6 4 2 W 1014,9 - 0,0
19.10.2018 15:00:00 19,9 13,8 4 2 W 1014,7 - 0,0
19.10.2018 14:00:00 20,3 13,5 5 3 W 1015,1 50 -
19.10.2018 13:00:00 19,6 12,8 5 3 NO 1015,4 - 0,0
19.10.2018 12:00:00 18,1 12,8 8 4 O 1015,8 - 0,0
19.10.2018 11:00:00 16,5 13,0 5 3 O 1015,9 50 -
19.10.2018 10:00:00 15,7 12,6 9 5 ZO 1015,5 - 0,0
19.10.2018 09:00:00 15,2 11,6 5 3 O 1014,2 - 0,0
19.10.2018 08:00:00 14,9 11,7 5 3 ONO 1013,7 - -
19.10.2018 07:00:00 14,7 12,7 2 1 N 1013,6 - 0,0
19.10.2018 06:00:00 14,3 12,5 5 3 NW 1013,5 - 0,0
19.10.2018 05:00:00 14,8 12,7 5 3 WZW 1013,5 - -
19.10.2018 04:00:00 15,1 12,4 2 1 NNW 1013,7 - 0,0
19.10.2018 03:00:00 15,1 12,8 8 4 NO 1013,4 - 0,0
19.10.2018 02:00:00 13,9 12,5 8 4 ONO 1014,1 - -
19.10.2018 01:00:00 14,4 12,4 4 2 Z 1013,5 - 0,0
19.10.2018 00:00:00 15,3 13,1 5 3 WZW 1013,1 - 0,0
18.10.2018 23:00:00 15,5 12,6 5 3 WNW 1012,8 - -
18.10.2018 22:00:00 15,7 13,4 5 3 NW 1012,7 - 0,0
18.10.2018 21:00:00 16,0 13,8 5 3 WNW 1012,5 - 0,0
18.10.2018 20:00:00 16,6 13,5 5 3 WZW 1012,4 - -
18.10.2018 19:00:00 17,8 13,5 4 2 ZW 1011,1 - 0,0
18.10.2018 18:00:00 19,7 12,2 8 4 ZZO 1010,5 - 0,0
18.10.2018 17:00:00 20,5 12,2 5 3 OZO 1010,4 45 -
18.10.2018 16:00:00 20,5 11,9 4 2 Z 1010,4 - 0,0
18.10.2018 15:00:00 21,0 12,2 4 2 ZW 1010,5 - 0,0
18.10.2018 14:00:00 19,2 12,5 4 2 NW 1011,3 40 -
18.10.2018 13:00:00 18,2 12,9 5 3 ZZW 1012,0 - 0,0
18.10.2018 12:00:00 17,1 12,8 5 3 WZW 1012,4 - 0,0
18.10.2018 11:00:00 15,1 11,9 2 1 NO 1012,7 55 -
18.10.2018 10:00:00 13,9 11,6 2 1 Z 1012,8 - 0,0
18.10.2018 09:00:00 13,5 11,4 4 2 NW 1012,6 - 0,0
18.10.2018 08:00:00 12,5 10,6 4 2 N 1012,8 - -
18.10.2018 07:00:00 13,2 10,7 2 1 N 1012,7 - 0,0
18.10.2018 06:00:00 13,8 11,5 5 3 ONO 1012,6 - 0,0
18.10.2018 05:00:00 14,1 11,6 2 1 NO 1012,6 - -
18.10.2018 04:00:00 14,0 11,5 8 4 ONO 1013,2 - 0,0
18.10.2018 03:00:00 13,5 10,7 8 4 ONO 1013,9 - 0,0
18.10.2018 02:00:00 13,3 9,7 8 4 O 1014,5 - -
18.10.2018 01:00:00 13,7 9,3 8 4 ONO 1014,7 - 0,0
18.10.2018 00:00:00 13,8 9,2 8 4 ONO 1014,6 - 0,0
17.10.2018 23:00:00 13,9 9,5 9 5 ONO 1014,6 - -
17.10.2018 22:00:00 14,5 9,9 8 4 ONO 1013,9 - 0,0
17.10.2018 21:00:00 14,6 9,8 5 3 NO 1013,6 - 0,0
17.10.2018 20:00:00 15,8 10,3 2 1 O 1013,4 - -
17.10.2018 19:00:00 18,2 10,8 2 1 ZZW 1012,5 - 0,0
17.10.2018 18:00:00 19,5 10,2 4 2 ZZW 1012,1 - 0,0
17.10.2018 17:00:00 20,3 11,0 5 3 W 1012,3 55 -
17.10.2018 16:00:00 19,8 10,5 5 3 WZW 1013,0 - 0,0
17.10.2018 15:00:00 20,0 10,7 8 4 W 1013,5 - 0,0
17.10.2018 14:00:00 20,1 11,3 5 3 W 1014,4 45 -
17.10.2018 13:00:00 18,9 11,5 5 3 ZW 1015,6 - 0,0
17.10.2018 12:00:00 17,7 12,8 5 3 WZW 1016,4 - 0,0
17.10.2018 11:00:00 15,5 11,9 4 2 NW 1017,1 45 -
17.10.2018 10:00:00 13,9 11,2 4 2 NW 1017,6 - 0,0
17.10.2018 09:00:00 12,7 10,8 4 2 NNW 1017,7 - 0,0
17.10.2018 08:00:00 12,6 10,5 4 2 ONO 1017,6 - -
17.10.2018 07:00:00 12,8 10,5 2 1 NO 1017,5 - 0,0
17.10.2018 06:00:00 12,4 10,6 4 2 NO 1017,4 - 0,0
17.10.2018 05:00:00 12,5 10,4 4 2 NO 1017,4 - -
17.10.2018 04:00:00 13,0 10,7 8 4 O 1017,6 - 0,0
17.10.2018 03:00:00 13,1 10,8 8 4 O 1018,0 - 0,0
17.10.2018 02:00:00 12,8 10,7 9 5 O 1018,1 - -
17.10.2018 01:00:00 13,0 10,5 8 4 O 1018,2 - 0,0
17.10.2018 00:00:00 12,9 10,4 8 4 ONO 1018,2 - 0,0
16.10.2018 23:00:00 13,1 10,5 8 4 O 1018,5 - -
16.10.2018 22:00:00 14,5 9,9 2 1 NNW 1017,5 - 0,0
16.10.2018 21:00:00 15,2 10,6 4 2 NNW 1017,0 - 0,0
16.10.2018 20:00:00 16,0 10,7 4 2 W 1016,5 - -
16.10.2018 19:00:00 18,2 11,0 4 2 WZW 1015,5 - 0,0
16.10.2018 18:00:00 19,6 10,6 4 2 W 1014,7 - 0,0
16.10.2018 17:00:00 20,1 10,5 4 2 NW 1014,6 75 -
16.10.2018 16:00:00 19,8 11,0 5 3 W 1014,6 - 0,0
16.10.2018 15:00:00 19,5 11,3 5 3 NW 1014,6 - 0,0
16.10.2018 14:00:00 17,8 11,4 5 3 N 1015,4 75 -
16.10.2018 13:00:00 17,9 11,2 5 3 ZZO 1015,6 - 0,0
16.10.2018 12:00:00 16,5 12,5 5 3 O 1016,0 - 0,0
16.10.2018 11:00:00 14,9 11,9 8 4 OZO 1016,1 75 -
16.10.2018 10:00:00 12,5 11,1 5 3 O 1016,0 - 0,0
16.10.2018 09:00:00 10,7 10,5 2 1 NW 1015,5 - 0,0
16.10.2018 08:00:00 10,4 9,6 2 1 NW 1014,7 - -
16.10.2018 07:00:00 11,2 10,6 4 2 NNW 1013,9 - 0,0
16.10.2018 06:00:00 10,7 10,4 4 2 NNW 1013,7 - 0,0
16.10.2018 05:00:00 10,6 10,1 2 1 N 1013,3 - -
16.10.2018 04:00:00 10,9 10,3 2 1 WZW 1013,2 - 0,0
16.10.2018 03:00:00 11,3 10,2 5 3 O 1013,1 - 0,0
16.10.2018 02:00:00 12,0 11,1 8 4 ONO 1012,8 - -
16.10.2018 01:00:00 12,3 11,4 5 3 O 1012,6 - 0,0
16.10.2018 00:00:00 12,7 11,6 5 3 O 1012,4 - 0,0
15.10.2018 23:00:00 12,4 11,5 8 4 O 1011,9 - -
15.10.2018 22:00:00 12,6 11,3 9 5 O 1011,1 - 0,0
15.10.2018 21:00:00 13,3 11,5 8 4 OZO 1010,3 - 0,0
15.10.2018 20:00:00 14,3 11,8 8 4 OZO 1009,3 - -
15.10.2018 19:00:00 15,4 12,0 9 5 O 1008,1 - 0,0
15.10.2018 18:00:00 17,4 11,7 11 6 O 1007,2 - 0,0
15.10.2018 17:00:00 17,8 11,6 8 4 OZO 1006,8 75 -
15.10.2018 16:00:00 17,3 10,7 2 1 NW 1006,6 - 0,0
15.10.2018 15:00:00 17,0 10,6 4 2 ZZO 1006,7 - 0,0
15.10.2018 14:00:00 16,8 10,9 4 2 NW 1006,6 75 -
15.10.2018 13:00:00 15,6 11,8 9 5 NO 1006,8 - 0,0
15.10.2018 12:00:00 13,9 11,8 4 2 W 1006,9 - 0,0
15.10.2018 11:00:00 12,1 11,2 5 3 Z 1006,9 50 -
15.10.2018 10:00:00 11,0 10,1 5 3 WZW 1006,6 - 0,0
15.10.2018 09:00:00 10,4 9,5 5 3 WNW 1005,9 - 0,0
15.10.2018 08:00:00 10,6 9,5 5 3 W 1005,3 - -
15.10.2018 07:00:00 10,8 9,7 5 3 NW 1004,8 - 0,0
15.10.2018 06:00:00 11,1 10,5 4 2 WNW 1004,7 - 0,0
15.10.2018 05:00:00 11,7 11,1 4 2 W 1004,2 - -
15.10.2018 04:00:00 12,1 11,8 5 3 W 1005,0 - 0,0
15.10.2018 03:00:00 12,5 12,2 5 3 W 1005,3 - 0,0
15.10.2018 02:00:00 12,6 12,3 5 3 WNW 1005,5 - -
15.10.2018 01:00:00 12,7 12,4 5 3 WNW 1006,3 - 0,0
15.10.2018 00:00:00 12,6 11,8 8 4 NNW 1006,9 - 0,2
14.10.2018 23:00:00 12,8 11,9 9 5 O 1006,9 - -
14.10.2018 22:00:00 12,5 11,7 8 4 NNO 1007,6 - 0,6
14.10.2018 21:00:00 13,0 12,5 4 2 NNO 1007,4 - 1,0

tt = temperatuur
td = dauwpunt
ff = windsnelheid
dd = windrichting
ppp = luchtdruk
vv = zicht
rr = neerslag

Weerstations in de omgeving